CDT,Max TemperatureF,Mean TemperatureF,Min TemperatureF,Max Dew PointF,MeanDew PointF,Min DewpointF,Max Humidity, Mean Humidity, Min Humidity, Max Sea Level PressureIn, Mean Sea Level PressureIn, Min Sea Level PressureIn, Max VisibilityMiles, Mean VisibilityMiles, Min VisibilityMiles, Max Wind SpeedMPH, Mean Wind SpeedMPH, Max Gust SpeedMPH,PrecipitationIn, CloudCover, Events, WindDirDegrees
2013-6-1,63,58,53,56,51,49,93,77,65,30.06,29.84,29.68,10,10,5,29,17,38,0.00,7,Rain,295
2013-6-2,69,59,49,49,46,42,90,63,37,30.15,30.08,30.01,10,10,10,16,9,23,0.00,3,,6
2013-6-3,76,64,52,56,50,47,86,62,38,30.04,29.94,29.82,10,10,10,23,9,32,0.00,0,,131
2013-6-4,73,66,59,65,61,56,97,83,69,30.01,29.93,29.83,10,10,4,28,8,33,0.15,6,Rain-Thunderstorm,98
2013-6-5,72,64,55,63,52,49,97,67,46,30.07,30.02,29.99,10,9,4,17,6,23,0.00,2,,324
2013-6-6,72,62,54,57,51,47,94,66,45,30.03,30.00,29.98,10,10,10,16,7,23,0.00,5,,314
2013-6-7,74,62,49,54,51,49,99,67,43,30.06,29.99,29.89,10,10,5,10,2,,0.00,2,,102
2013-6-8,67,63,59,65,58,51,100,86,65,29.89,29.78,29.65,10,10,5,17,10,23,0.60,4,Rain-Thunderstorm,139
2013-6-9,70,64,58,61,60,58,98,85,72,29.86,29.77,29.70,10,10,5,25,13,33,0.04,7,Rain,278
2013-6-10,79,66,52,66,61,53,100,82,58,29.91,29.86,29.78,10,9,5,16,6,20,0.00,0,,117
2013-6-11,88,78,69,73,68,64,87,65,49,29.84,29.75,29.69,10,10,10,16,9,20,0.00,0,,102
2013-6-12,86,74,62,71,64,54,86,67,49,30.06,29.83,29.67,10,10,10,29,11,34,0.00,0,Rain-Thunderstorm,330
2013-6-13,78,67,56,61,56,50,94,69,39,30.13,30.07,30.00,10,10,7,10,6,,0.00,0,Rain-Thunderstorm,10
2013-6-14,90,76,62,73,66,59,96,75,56,30.04,29.90,29.75,10,10,2,24,9,33,0.43,1,Rain-Thunderstorm,124
2013-6-15,83,74,66,70,67,63,98,79,53,29.98,29.90,29.79,10,10,10,25,9,34,0.02,1,Rain-Thunderstorm,130
2013-6-16,85,74,64,68,63,54,100,68,37,30.02,29.98,29.95,10,9,2,10,2,,0.00,0,Rain-Thunderstorm,55
2013-6-17,87,74,61,61,59,55,90,58,35,30.05,30.01,29.97,10,10,10,13,3,20,0.00,0,,335
2013-6-18,81,72,63,65,60,55,92,68,41,30.10,30.03,29.98,10,10,4,6,2,,0.15,2,Rain-Thunderstorm,151
2013-6-19,87,76,64,67,63,60,92,66,42,30.01,29.97,29.90,10,10,10,20,6,25,0.00,1,,134
2013-6-20,90,80,70,73,69,64,84,67,54,29.96,29.88,29.81,10,10,10,24,12,29,0.00,2,,145
2013-6-21,95,86,78,73,71,68,78,64,42,29.86,29.82,29.76,10,10,10,23,16,30,0.00,0,Thunderstorm,155
2013-6-22,89,78,67,73,68,59,97,67,49,30.02,29.87,29.77,10,10,7,29,13,37,0.07,2,Rain-Thunderstorm,129
2013-6-23,79,72,65,70,67,63,98,80,63,29.94,29.87,29.70,10,10,3,32,11,39,0.45,4,Rain-Thunderstorm,134
2013-6-24,83,76,68,74,71,64,99,84,70,29.93,29.82,29.73,10,10,3,18,8,28,0.21,2,Rain-Thunderstorm,130
2013-6-25,85,78,71,77,72,67,98,79,60,29.82,29.74,29.68,10,10,5,15,7,24,0.11,2,Rain-Thunderstorm,126
2013-6-26,90,81,72,75,68,57,100,69,34,29.91,29.83,29.69,10,10,5,14,5,18,0.00,0,,306
2013-6-27,85,76,68,70,68,66,97,81,52,30.05,29.97,29.90,10,10,7,10,1,16,0.02,3,Rain-Thunderstorm,26
2013-6-28,85,74,63,68,61,56,97,65,39,30.02,29.98,29.93,10,10,10,22,9,30,0.00,1,,310
2013-6-29,81,70,61,61,58,54,85,65,42,29.98,29.94,29.92,10,10,10,24,10,33,0.00,1,,318
2013-6-30,78,68,57,60,55,50,97,67,39,30.14,30.08,29.99,10,10,10,12,4,17,0.00,1,,3